Powrót do katalogu

ONEWEB-0566

AktywnyŁącznośćPO
NORAD 56061·PAYLOAD·🇬🇧 United Kingdom

Wystrzelony Mar 26, 2023 z Satish Dhawan Space Centre

Loading…

Następne Przeloty (najbliższe 24 godziny)

TLE

ŚwieżeSource: CelesTrak SupGP

Epoka: Sep 14, 2026, 18:20 UTC

1 56061C 23043R   26257.76439074  .00003396  00000+0  82330-2 0  2577
2 56061  87.9282 226.1417 0002054  73.8797   7.2180 13.21823896    13

Śledź ONEWEB-0566 w czasie rzeczywistym z AllMySat

Download on the App Store